Location: Albuquerque Trailhead
(34.7934°N, 106.3736°W)
Time: 02:24:52
(UTC+00:00)

Cosmos 1726 - Pass Details

Date: 20 June 2021
Orbit: 480 x 496 km, 82.5° (Epoch: 27 July)

Event Time Altitude Azimuth Distance (km) Brightness Sun altitude
Rises 03:20:39 0° 355° (N) 2,545 6.4 -10.8°
Reaches altitude 10° 03:22:45 10° 357° (N) 1,663 5.4 -11.2°
Maximum altitude 03:26:23 74° 82° (E) 506 2.0 -11.7°
Enters shadow 03:29:30 13° 168° (SSE) 1,455 4.0 -12.2°
